Tracking 31027 objects as of 19-Jul-2025
HD Live streaming from Space Station
objects crossing your sky now

CZ-3B R/B

Track CZ-3B R/B now!
10-day predictions


NORAD ID: 43649
Int'l Code: 2018-078C
Perigee: 454.7 km
Apogee: 17,158.8 km
Inclination: 55.0 °
Period: 310.1 minutes
Semi major axis: 15177 km
RCS: Unknown
Launch date: October 15, 2018
Source: People's Republic of China (PRC)
Launch site: Xichang Space Center, China (XSC)

Note: This is a ROCKET BODY
Your satellite tracking list
Your tracking list is empty




NASA's NSSDC Master Catalog

Two Line Element Set (TLE):
1 43649U 18078C   25199.34012619  .00000007  00000-0  14153-3 0  9996
2 43649  54.9578  63.2907 5502824 252.1115  42.8950  4.64292384113708
Source of the keplerian elements: AFSPC